User: anonymous   Login
Location: Vancouver
(49.2500°N, 123.1330°W)
Time: 22:54:28
(UTC-08:00)
Language:

Cosmos 1864 Rocket - Orbit

View from above orbital plane
View from above orbital plane
View from above satellite
View from above satellite

Ground track
Ground track

The orbit data is extracted from the following two-line orbital elements,

1 18161U 87057B   16344.10381036 -.00000004  00000-0 -19728-4 0  9991
2 18161  82.9347 213.3863 0032101 124.1462  39.1356 13.76964717458066
Epoch (UTC): 09 December 2016 02:29:29
Eccentricity: 0.0032101
inclination: 82.9347°
perigee height: 951 km
apogee height: 998 km
right ascension of ascending node: 213.3863°
argument of perigee: 124.1462°
revolutions per day: 13.76964717
mean anomaly at epoch: 39.1356°
orbit number at epoch: 45806

The dashed part of the orbit path shows where the satellite is in the earth's shadow,  

DLR